Date,TemperatureHighF,TemperatureAvgF,TemperatureLowF,DewpointHighF,DewpointAvgF,DewpointLowF,HumidityHigh,HumidityAvg,HumidityLow,PressureMaxIn,PressureMinIn,WindSpeedMaxMPH,WindSpeedAvgMPH,GustSpeedMaxMPH,PrecipitationSumIn
2013-3-9,47,36,28,24,21,19,68,55,38,30.02,29.99,8,1,8,24.82
2013-3-10,52,34,0,29,21,0,100,59,37,30.02,29.88,114,1,114,0.00
2013-3-11,48,41,34,33,23,-14,81,61,51,29.90,29.68,57,1,57,0.00
2013-3-12,46,40,31,43,31,-3,90,88,80,29.71,29.45,22,5,22,1.10
2013-3-13,31,31,30,28,28,26,88,88,87,29.56,29.52,4,0,4,0.00
2013-4-13,36,33,32,33,30,29,90,88,87,29.63,29.56,5,0,5,26.80
2013-4-14,36,32,32,32,30,29,90,90,87,32.66,29.60,3,0,3,0.00
2013-6-7,49,49,48,46,46,46,90,90,90,29.67,29.63,10,3,10,8.63
2013-6-8,60,53,48,54,49,46,91,87,80,29.81,27.69,9,0,9,0.00
2013-6-9,66,55,52,58,52,49,89,87,55,29.92,28.00,2,0,2,0.02
2013-6-29,73,65,59,64,60,56,90,84,70,29.51,29.37,7,0,7,1.14
2013-6-30,83,67,56,66,59,53,90,79,55,29.66,29.51,3,0,3,1.14
2013-8-9,71,66,63,66,63,60,89,88,84,29.66,29.61,0,0,0,0.00
2013-8-10,74,62,54,60,53,46,90,72,48,29.85,29.65,8,0,8,0.00
2013-8-11,74,58,52,57,50,46,86,75,53,29.88,29.83,6,0,6,0.00
2013-8-26,70,67,65,65,63,61,89,85,82,29.74,29.72,0,0,0,0.00
2013-8-27,80,68,61,69,63,58,90,83,67,29.76,29.69,0,0,0,0.00
2013-8-28,85,68,57,68,60,54,89,77,49,29.74,29.69,8,0,8,0.00
2013-9-25,63,51,45,49,44,41,88,78,59,29.77,29.70,3,0,3,0.00
2013-9-26,62,51,40,47,43,37,88,76,57,29.88,29.77,10,0,10,0.00
2013-10-7,66,63,52,60,58,48,91,86,81,29.66,27.55,19,5,19,0.00
2013-10-8,52,48,38,49,37,34,100,68,55,30.08,29.65,114,11,114,36.56
2013-10-9,65,49,34,42,36,30,85,62,40,30.18,30.08,1,0,1,0.00
2013-10-10,66,42,0,42,33,0,100,73,39,30.07,29.98,114,1,114,0.00
2013-10-11,66,62,49,42,40,35,60,45,36,29.95,29.93,2,0,2,0.00
2013-11-20,26,21,17,14,12,11,78,69,60,30.27,30.24,0,0,0,0.00
2013-11-21,25,18,0,15,10,0,100,73,64,30.26,30.14,114,2,114,0.00
2013-11-22,53,36,31,49,31,0,100,84,69,39.99,29.58,114,0,114,0.00
2013-11-23,33,27,26,30,8,0,100,97,85,29.70,29.60,114,12,114,0.00